Location: Unspecified
(0.0000°N, 0.0000°E)
Time: 23:12:22
(UTC+00:00)

Vanguard 2 - Pass Details

Date: 07 October 2020
Orbit: 554 x 2937 km, 32.9° (Epoch: 28 October)

Event Time Altitude Azimuth Distance (km) Brightness Sun altitude
Rises 00:17:13 0° 252° (WSW) 6,778 - -80.8°
Reaches altitude 10° 00:22:11 10° 258° (WSW) 5,760 - -79.8°
Maximum altitude 00:38:12 43° 323° (NW) 3,257 - -76.2°
Drops below altitude 10° 00:50:07 10° 31° (NNE) 4,321 - -73.5°
Sets 00:53:17 0° 38° (NE) 5,012 - -72.7°
